VXP1124 KJQF-TJSJ

Flight info

Callsign VXP1124
Flight time N/A
Altitude 33000
Route KWEEN5 PITRW/N0461F350 Y436 EBEAR/N0461F340 DCT DUUNK Y313 HOAGG/N0465F350 DCT NUCAR Y355 PLING RTE7 SAALR
Aircraft B738/M-SDE2E3FGHIRWXY/LB1

Departure

Time 2026-04-12 04:42
Airport Concord-Padgett Regional Airport (KJQF)

Arrival

Time N/A
Airport Luis Munoz Marin International Airport (TJSJ)
Time Latitude Longitude Altitude Speed Heading
2026-04-12 04:25 35.37988 -80.71333 666 ft 0 kts 327°
2026-04-12 04:37 35.37981 -80.71327 665 ft 4 kts 332°
2026-04-12 04:37 35.37960 -80.71309 666 ft 4 kts 310°
2026-04-12 04:37 35.37950 -80.71281 665 ft 4 kts 278°
2026-04-12 04:37 35.37947 -80.71257 666 ft 4 kts 261°
2026-04-12 04:38 35.37959 -80.71236 665 ft 4 kts 197°
2026-04-12 04:38 35.37979 -80.71230 667 ft 4 kts 190°
2026-04-12 04:38 35.37990 -80.71227 665 ft 1 kts 190°
2026-04-12 04:40 35.37980 -80.71229 667 ft 4 kts 190°
2026-04-12 04:40 35.37935 -80.71240 664 ft 10 kts 190°
2026-04-12 04:40 35.37865 -80.71255 666 ft 10 kts 190°
2026-04-12 04:41 35.37803 -80.71251 665 ft 9 kts 135°
2026-04-12 04:41 35.37793 -80.71179 667 ft 8 kts 90°
2026-04-12 04:41 35.37827 -80.71130 666 ft 9 kts 17°
2026-04-12 04:41 35.38090 -80.71068 668 ft 74 kts 10°
2026-04-12 04:42 35.38830 -80.70903 669 ft 139 kts 10°
2026-04-12 04:42 35.39954 -80.70603 745 ft 186 kts 14°
2026-04-12 04:42 35.41274 -80.70254 1375 ft 203 kts 12°
2026-04-12 04:43 35.44145 -80.70687 2406 ft 227 kts 323°
2026-04-12 04:43 35.45218 -80.72129 2705 ft 242 kts 301°
2026-04-12 04:43 35.45848 -80.74076 3133 ft 246 kts 281°
2026-04-12 04:43 35.45803 -80.76151 3565 ft 255 kts 255°
2026-04-12 04:44 35.45025 -80.78112 4110 ft 257 kts 232°
2026-04-12 04:44 35.43698 -80.79580 4839 ft 262 kts 210°
2026-04-12 04:44 35.41984 -80.80378 5552 ft 267 kts 191°
2026-04-12 04:44 35.40107 -80.80547 6112 ft 275 kts 179°
2026-04-12 04:45 35.38182 -80.80474 6422 ft 278 kts 176°
2026-04-12 04:45 35.36229 -80.80279 7105 ft 284 kts 176°
2026-04-12 04:45 35.34256 -80.80149 7942 ft 284 kts 179°
2026-04-12 04:45 35.32277 -80.80120 8738 ft 286 kts 181°
2026-04-12 04:46 35.30272 -80.80179 9510 ft 290 kts 184°
2026-04-12 04:46 35.28932 -80.80256 10020 ft 292 kts 184°
2026-04-12 04:46 35.26144 -80.80481 10525 ft 315 kts 185°
2026-04-12 04:46 35.24658 -80.80625 10655 ft 330 kts 186°
2026-04-12 04:47 35.22290 -80.80879 10828 ft 352 kts 186°
2026-04-12 04:47 35.19785 -80.81166 11029 ft 371 kts 186°
2026-04-12 04:47 35.17184 -80.81477 11498 ft 380 kts 187°
2026-04-12 04:47 35.14540 -80.81799 12143 ft 383 kts 187°
2026-04-12 04:48 35.11877 -80.82127 12843 ft 385 kts 187°
2026-04-12 04:48 35.09199 -80.82459 13491 ft 389 kts 187°
2026-04-12 04:48 35.06493 -80.82796 14115 ft 393 kts 187°
2026-04-12 04:48 35.03763 -80.83136 14640 ft 397 kts 187°
2026-04-12 04:49 35.01004 -80.83480 15171 ft 401 kts 187°
2026-04-12 04:49 34.98212 -80.83827 15695 ft 405 kts 187°
2026-04-12 04:49 34.95387 -80.84178 16229 ft 409 kts 187°
2026-04-12 04:49 34.92557 -80.84530 16749 ft 413 kts 187°
2026-04-12 04:50 34.89681 -80.84887 17286 ft 417 kts 187°
2026-04-12 04:50 34.86776 -80.85247 17808 ft 421 kts 187°
2026-04-12 04:50 34.83894 -80.85603 18310 ft 424 kts 187°
2026-04-12 04:50 34.80940 -80.85966 18774 ft 428 kts 187°
2026-04-12 04:51 34.77942 -80.86007 19192 ft 434 kts 177°
2026-04-12 04:51 34.74933 -80.85562 19677 ft 437 kts 174°
2026-04-12 04:51 34.71912 -80.85053 20134 ft 439 kts 174°
2026-04-12 04:51 34.68865 -80.84611 20561 ft 443 kts 176°
2026-04-12 04:52 34.65783 -80.84244 21001 ft 445 kts 178°
2026-04-12 04:52 34.62689 -80.83954 21435 ft 447 kts 178°
2026-04-12 04:52 34.59582 -80.83692 21873 ft 449 kts 178°
2026-04-12 04:52 34.56441 -80.83432 22265 ft 452 kts 178°
2026-04-12 04:53 34.53328 -80.83167 22653 ft 455 kts 178°
2026-04-12 04:53 34.50155 -80.82890 23034 ft 458 kts 178°
2026-04-12 04:53 34.43744 -80.82312 23782 ft 464 kts 178°
2026-04-12 04:54 34.40518 -80.82019 24109 ft 466 kts 178°
2026-04-12 04:54 34.37272 -80.81723 24419 ft 468 kts 178°
2026-04-12 04:54 34.34016 -80.81427 24756 ft 470 kts 178°
2026-04-12 04:54 34.30750 -80.81131 25079 ft 471 kts 178°
2026-04-12 04:55 34.27472 -80.80834 25388 ft 473 kts 178°
2026-04-12 04:55 34.24177 -80.80536 25698 ft 475 kts 179°
2026-04-12 04:55 34.20884 -80.80240 26000 ft 477 kts 179°
2026-04-12 04:55 34.17566 -80.79947 26294 ft 479 kts 179°
2026-04-12 04:56 34.14243 -80.79658 26591 ft 480 kts 179°
2026-04-12 04:56 34.10952 -80.79374 26859 ft 482 kts 179°
2026-04-12 04:56 34.07559 -80.79081 27152 ft 483 kts 179°
2026-04-12 04:56 34.04246 -80.78794 27426 ft 485 kts 178°
2026-04-12 04:57 34.00876 -80.78502 27689 ft 486 kts 179°
2026-04-12 04:57 33.97498 -80.78209 28009 ft 486 kts 179°
2026-04-12 04:57 33.94131 -80.77916 28417 ft 485 kts 179°
2026-04-12 04:57 33.90778 -80.77624 28861 ft 482 kts 179°
2026-04-12 04:58 33.87435 -80.77334 29283 ft 481 kts 179°
2026-04-12 04:58 33.84092 -80.77045 29625 ft 481 kts 178°
2026-04-12 04:58 33.80772 -80.76758 29935 ft 482 kts 178°
2026-04-12 04:58 33.77435 -80.76471 30314 ft 481 kts 179°
2026-04-12 04:59 33.74105 -80.76183 30692 ft 479 kts 179°
2026-04-12 04:59 33.70781 -80.75896 31003 ft 479 kts 179°
2026-04-12 04:59 33.67456 -80.75610 31272 ft 479 kts 179°
2026-04-12 04:59 33.64138 -80.75324 31532 ft 479 kts 179°
2026-04-12 05:00 33.60810 -80.75038 31833 ft 479 kts 179°
2026-04-12 05:00 33.57533 -80.74756 32084 ft 479 kts 178°
2026-04-12 05:00 33.54210 -80.74392 32297 ft 482 kts 171°
2026-04-12 05:00 33.51034 -80.73066 32496 ft 488 kts 153°
2026-04-12 05:01 33.48261 -80.70734 32806 ft 489 kts 136°
2026-04-12 05:01 33.46055 -80.67700 32978 ft 491 kts 128°
2026-04-12 05:01 33.43966 -80.64446 32948 ft 494 kts 127°
2026-04-12 05:02 33.39852 -80.57893 32942 ft 490 kts 127°
2026-04-12 05:02 33.35759 -80.51473 32982 ft 487 kts 128°
2026-04-12 05:02 33.33694 -80.48281 33108 ft 487 kts 128°
2026-04-12 05:03 33.31606 -80.45072 33229 ft 489 kts 128°
2026-04-12 05:03 33.27426 -80.38674 33323 ft 488 kts 128°
2026-04-12 05:04 33.23240 -80.32276 33326 ft 488 kts 128°
2026-04-12 05:04 33.19081 -80.25926 33326 ft 489 kts 128°
2026-04-12 05:05 33.14878 -80.19516 33324 ft 490 kts 128°
2026-04-12 05:05 33.05131 -80.04692 33335 ft 490 kts 129°
2026-04-12 05:06 32.74673 -79.58748 33327 ft 489 kts 128°